Location: Newark
(5.8900°S, 42.6378°W)
Time: 14:09:14
(UTC+00:00)

Vanguard 1 Rocket - Pass Details

Date: 25 October 2019
Orbit: 651 x 4226 km, 34.3° (Epoch: 20 November)

Event Time Altitude Azimuth Distance (km) Brightness Sun altitude
Rises 14:20:10 0° 329° (NNW) 6,277 11.6 82.8°
Reaches altitude 10° 14:32:00 10° 5° (N) 6,407 11.8 83.7°
Maximum altitude 14:35:29 11° 15° (NNE) 6,620 11.9 83.8°
Drops below altitude 10° 14:39:12 10° 25° (NNE) 6,902 11.9 83.7°
Sets 14:55:45 0° 58° (ENE) 8,462 12.2 81.9°
